Location: Ambrosina
(19.9365°S, 43.9833°W)
Time: 00:00:30
(UTC+00:00)

Cosmos 1763 Rocket - Pass Details

Date: 11 May 2021
Orbit: 733 x 780 km, 74.0° (Epoch: 20 June)

Event Time Altitude Azimuth Distance (km) Brightness Sun altitude
Rises 21:54:04 0° 3° (N) 3,192 6.8 -20.1°
Reaches altitude 10° 21:56:31 10° 10° (N) 2,282 6.0 -20.7°
Enters shadow 22:00:44 39° 61° (ENE) 1,136 4.0 -21.6°
